| time (UTC) | temp F | wind direction | speed MPH | gust MPH | rain 1hr in | rain 24hr in | rain mn in | humidity % | barometer mb |
| 20260508054526 | 48 | 329 | 3.0 | 7.0 | 0.00 | 0.00 | 0.00 | 85 | 1016.7 |
| 20260508053022 | 48 | 296 | 3.0 | 8.0 | 0.00 | 0.00 | 0.00 | 85 | 1016.5 |
| 20260508051520 | 48 | 72 | 2.0 | 7.0 | 0.00 | 0.00 | 0.00 | 85 | 1016.3 |
| 20260508050021 | 48 | 303 | 2.0 | 6.0 | 0.00 | 0.00 | 0.00 | 86 | 1016.4 |
| 20260508044516 | 48 | 346 | 3.0 | 7.0 | 0.00 | 0.00 | 0.00 | 87 | 1016.2 |
| 20260508043014 | 47 | 269 | 1.0 | 4.0 | 0.00 | 0.00 | 0.00 | 88 | 1016.2 |
| 20260508041511 | 47 | 279 | 1.0 | 4.0 | 0.00 | 0.00 | 0.00 | 88 | 1016.1 |
| 20260508040018 | 47 | 314 | 1.0 | 5.0 | 0.00 | 0.01 | 0.00 | 87 | 1016.2 |
| 20260508034512 | 48 | 314 | 2.0 | 5.0 | 0.00 | 0.01 | 0.00 | 86 | 1016.1 |
| 20260508033005 | 48 | 28 | 2.0 | 6.0 | 0.00 | 0.01 | 0.00 | 85 | 1016.2 |
| 20260508031511 | 48 | 314 | 2.0 | 7.0 | 0.00 | 0.01 | 0.00 | 83 | 1016.0 |
| 20260508030103 | 49 | 331 | 2.0 | 7.0 | 0.00 | 0.01 | 0.00 | 82 | 1015.9 |
| 20260508024600 | 49 | 4 | 4.0 | 7.0 | 0.00 | 0.01 | 0.00 | 81 | 1015.7 |
| 20260508023054 | 49 | 46 | 2.0 | 6.0 | 0.00 | 0.01 | 0.00 | 81 | 1015.7 |
| 20260508021553 | 49 | 346 | 1.0 | 6.0 | 0.00 | 0.01 | 0.00 | 80 | 1015.8 |
| 20260508020052 | 49 | 35 | 1.0 | 7.0 | 0.00 | 0.01 | 0.00 | 80 | 1015.6 |
| 20260508014551 | 49 | 343 | 2.0 | 8.0 | 0.00 | 0.01 | 0.00 | 80 | 1015.7 |
| 20260508013049 | 49 | 1 | 4.0 | 9.0 | 0.00 | 0.01 | 0.00 | 79 | 1015.7 |
| 20260508011550 | 49 | 44 | 3.0 | 8.0 | 0.00 | 0.01 | 0.00 | 79 | 1015.7 |
| 20260508010047 | 49 | 20 | 1.0 | 7.0 | 0.00 | 0.01 | 0.00 | 79 | 1015.6 |
| 20260508004546 | 49 | 51 | 3.0 | 8.0 | 0.00 | 0.01 | 0.00 | 79 | 1015.7 |
| 20260508003044 | 50 | 327 | 2.0 | 5.0 | 0.00 | 0.01 | 0.00 | 79 | 1015.6 |
| 20260508001546 | 50 | 353 | 3.0 | 7.0 | 0.00 | 0.01 | 0.00 | 79 | 1015.7 |
| 20260508000041 | 50 | 8 | 3.0 | 7.0 | 0.00 | 0.01 | 0.00 | 79 | 1015.5 |
| 20260507234542 | 50 | 60 | 1.0 | 7.0 | 0.00 | 0.01 | 0.00 | 79 | 1015.5 |
| 20260507233037 | 50 | 39 | 2.0 | 5.0 | 0.00 | 0.01 | 0.00 | 79 | 1015.5 |
| 20260507231534 | 50 | 342 | 4.0 | 9.0 | 0.00 | 0.01 | 0.00 | 79 | 1015.5 |
| 20260507230032 | 50 | 1 | 1.0 | 8.0 | 0.00 | 0.01 | 0.00 | 79 | 1015.6 |
| 20260507224530 | 51 | 342 | 4.0 | 7.0 | 0.00 | 0.01 | 0.00 | 79 | 1015.3 |
| 20260507223028 | 51 | 314 | 1.0 | 6.0 | 0.00 | 0.01 | 0.00 | 78 | 1015.2 |
| 20260507221526 | 51 | 319 | 4.0 | 8.0 | 0.00 | 0.01 | 0.00 | 78 | 1015.1 |
| 20260507220022 | 51 | 355 | 4.0 | 7.0 | 0.00 | 0.01 | 0.01 | 79 | 1015.0 |
| 20260507214521 | 51 | 324 | 1.0 | 6.0 | 0.00 | 0.01 | 0.01 | 79 | 1015.0 |
| 20260507213020 | 52 | 352 | 1.0 | 5.0 | 0.00 | 0.01 | 0.01 | 78 | 1014.7 |
| 20260507211517 | 52 | 346 | 3.0 | 7.0 | 0.00 | 0.01 | 0.01 | 77 | 1014.7 |
| 20260507210016 | 52 | 8 | 2.0 | 5.0 | 0.00 | 0.01 | 0.01 | 76 | 1014.8 |
| 20260507204515 | 52 | 322 | 1.0 | 4.0 | 0.00 | 0.01 | 0.01 | 76 | 1014.7 |
| 20260507203014 | 52 | 321 | 2.0 | 4.0 | 0.00 | 0.01 | 0.01 | 76 | 1014.7 |
| 20260507201514 | 52 | 15 | 1.0 | 4.0 | 0.00 | 0.01 | 0.01 | 75 | 1014.7 |
| 20260507200013 | 52 | 321 | 1.0 | 4.0 | 0.00 | 0.01 | 0.01 | 75 | 1014.6 |
| 20260507194512 | 52 | 32 | 2.0 | 5.0 | 0.00 | 0.01 | 0.01 | 75 | 1014.5 |
| 20260507193011 | 52 | 321 | 1.0 | 4.0 | 0.00 | 0.01 | 0.01 | 75 | 1014.6 |
| 20260507191508 | 53 | 269 | 3.0 | 6.0 | 0.00 | 0.01 | 0.01 | 74 | 1014.2 |
| 20260507190008 | 53 | 1 | 3.0 | 6.0 | 0.00 | 0.01 | 0.01 | 75 | 1014.2 |
| 20260507184507 | 53 | 30 | 1.0 | 7.0 | 0.00 | 0.01 | 0.01 | 75 | 1014.1 |
| 20260507183008 | 53 | 351 | 2.0 | 8.0 | 0.00 | 0.01 | 0.01 | 76 | 1014.1 |
| 20260507181503 | 53 | 283 | 2.0 | 6.0 | 0.00 | 0.01 | 0.01 | 75 | 1013.9 |
| 20260507180003 | 54 | 331 | 5.0 | 8.0 | 0.00 | 0.01 | 0.01 | 75 | 1013.7 |
| 20260507174600 | 54 | 49 | 3.0 | 7.0 | 0.00 | 0.01 | 0.01 | 74 | 1013.4 |
| 20260507173057 | 54 | 6 | 3.0 | 9.0 | 0.00 | 0.01 | 0.01 | 74 | 1013.1 |
| 20260507171554 | 54 | 15 | 4.0 | 8.0 | 0.00 | 0.01 | 0.01 | 74 | 1012.8 |
| 20260507170055 | 55 | 333 | 3.0 | 11.0 | 0.00 | 0.01 | 0.01 | 74 | 1012.6 |
| 20260507164612 | 55 | 340 | 5.0 | 10.0 | 0.00 | 0.01 | 0.01 | 74 | 1012.6 |
| 20260507163052 | 55 | 356 | 4.0 | 9.0 | 0.00 | 0.01 | 0.01 | 73 | 1012.4 |
| 20260507161555 | 55 | 320 | 3.0 | 8.0 | 0.00 | 0.01 | 0.01 | 74 | 1012.5 |
| 20260507160052 | 56 | 319 | 3.0 | 10.0 | 0.00 | 0.01 | 0.01 | 73 | 1012.6 |
| 20260507154549 | 56 | 291 | 4.0 | 8.0 | 0.00 | 0.01 | 0.01 | 72 | 1012.7 |
| 20260507153049 | 56 | 307 | 2.0 | 10.0 | 0.00 | 0.01 | 0.01 | 73 | 1012.7 |
| 20260507151546 | 56 | 288 | 4.0 | 9.0 | 0.00 | 0.01 | 0.01 | 73 | 1012.6 |
| 20260507150048 | 57 | 46 | 2.0 | 9.0 | 0.00 | 0.01 | 0.01 | 72 | 1012.6 |
| 20260507144544 | 57 | 250 | 4.0 | 11.0 | 0.00 | 0.01 | 0.01 | 72 | 1012.4 |
| 20260507143057 | 57 | 312 | 3.0 | 11.0 | 0.00 | 0.01 | 0.01 | 72 | 1012.3 |
| 20260507141600 | 57 | 330 | 3.0 | 9.0 | 0.00 | 0.01 | 0.01 | 73 | 1012.2 |
| 20260507140040 | 56 | 333 | 4.0 | 10.0 | 0.00 | 0.01 | 0.01 | 74 | 1012.1 |
| 20260507134540 | 57 | 348 | 4.0 | 10.0 | 0.00 | 0.01 | 0.01 | 73 | 1012.2 |
| 20260507133040 | 56 | 301 | 5.0 | 10.0 | 0.00 | 0.01 | 0.01 | 75 | 1012.2 |
| 20260507131543 | 56 | 345 | 4.0 | 9.0 | 0.00 | 0.01 | 0.01 | 75 | 1012.0 |
| 20260507130041 | 56 | 328 | 4.0 | 9.0 | 0.00 | 0.01 | 0.01 | 77 | 1011.8 |
| 20260507124536 | 56 | 336 | 5.0 | 11.0 | 0.00 | 0.01 | 0.01 | 77 | 1011.9 |
| 20260507123033 | 56 | 315 | 4.0 | 9.0 | 0.00 | 0.01 | 0.01 | 76 | 1011.9 |
| 20260507121532 | 55 | 1 | 4.0 | 9.0 | 0.00 | 0.01 | 0.01 | 79 | 1012.0 |
| 20260507120033 | 55 | 307 | 5.0 | 10.0 | 0.00 | 0.01 | 0.01 | 79 | 1012.1 |
| 20260507114531 | 56 | 284 | 5.0 | 9.0 | 0.00 | 0.01 | 0.01 | 79 | 1011.9 |
| 20260507113028 | 55 | 269 | 3.0 | 7.0 | 0.00 | 0.01 | 0.01 | 80 | 1011.6 |
| 20260507111528 | 55 | 286 | 4.0 | 7.0 | 0.00 | 0.01 | 0.01 | 82 | 1011.6 |
| 20260507110027 | 54 | 269 | 3.0 | 6.0 | 0.00 | 0.01 | 0.01 | 84 | 1011.3 |
| 20260507104525 | 53 | 296 | 5.0 | 8.0 | 0.00 | 0.01 | 0.01 | 86 | 1011.3 |
| 20260507103021 | 52 | 315 | 3.0 | 8.0 | 0.00 | 0.01 | 0.01 | 87 | 1011.3 |
| 20260507101520 | 52 | 346 | 3.0 | 7.0 | 0.00 | 0.01 | 0.01 | 87 | 1010.9 |
| 20260507100016 | 52 | 297 | 2.0 | 8.0 | 0.00 | 0.01 | 0.01 | 87 | 1010.9 |
| 20260507094514 | 52 | 348 | 4.0 | 7.0 | 0.00 | 0.01 | 0.01 | 87 | 1010.6 |
| 20260507093012 | 52 | 328 | 4.0 | 9.0 | 0.00 | 0.01 | 0.01 | 86 | 1010.6 |
| 20260507091513 | 53 | 324 | 5.0 | 7.0 | 0.00 | 0.01 | 0.01 | 86 | 1010.3 |
| 20260507090006 | 53 | 290 | 3.0 | 11.0 | 0.00 | 0.01 | 0.01 | 86 | 1010.2 |
| 20260507084503 | 53 | 310 | 3.0 | 9.0 | 0.00 | 0.01 | 0.01 | 85 | 1009.9 |
| 20260507083100 | 53 | 317 | 4.0 | 8.0 | 0.00 | 0.01 | 0.01 | 85 | 1009.7 |
| 20260507081601 | 54 | 324 | 2.0 | 9.0 | 0.00 | 0.01 | 0.01 | 85 | 1009.6 |
| 20260507080112 | 54 | 314 | 4.0 | 7.0 | 0.00 | 0.01 | 0.01 | 85 | 1009.5 |
| 20260507074556 | 54 | 327 | 2.0 | 7.0 | 0.00 | 0.01 | 0.01 | 85 | 1009.1 |
| 20260507073051 | 54 | 331 | 4.0 | 10.0 | 0.00 | 0.01 | 0.01 | 85 | 1009.0 |
| 20260507071548 | 54 | 281 | 4.0 | 9.0 | 0.00 | 0.01 | 0.01 | 86 | 1008.8 |
| 20260507070047 | 55 | 352 | 4.0 | 10.0 | 0.00 | 0.01 | 0.01 | 85 | 1008.5 |
| 20260507064613 | 56 | 310 | 3.0 | 10.0 | 0.00 | 0.01 | 0.01 | 84 | 1008.4 |
| 20260507063042 | 56 | 307 | 5.0 | 10.0 | 0.00 | 0.01 | 0.01 | 83 | 1008.3 |
| 20260507061539 | 56 | 11 | 4.0 | 10.0 | 0.00 | 0.01 | 0.01 | 85 | 1007.9 |
| 20260507060104 | 56 | 314 | 1.0 | 4.0 | 0.00 | 0.01 | 0.01 | 85 | 1008.0 |